Tracking 29892 objects as of 21-Nov-2024
HD Live streaming from Space Station
objects crossing your sky now

STARLINK-31925

Track STARLINK-31925 now!
10-day predictions
STARLINK-31925 is classified as:


NORAD ID: 59840
Int'l Code: 2024-097F
Perigee: 449.3 km
Apogee: 453.2 km
Inclination: 43.0 °
Period: 93.5 minutes
Semi major axis: 6822 km
RCS: Unknown
Launch date: May 23, 2024
Source: United States (US)
Launch site: AIR FORCE EASTERN TEST RANGE (AFETR)
Your satellite tracking list
Your tracking list is empty




NASA's NSSDC Master Catalog

Two Line Element Set (TLE):
1 59840U 24097F   24325.77309441 -.00001249  00000-0 -22617-4 0  9999
2 59840  43.0077  83.2313 0002871 278.3563  81.6968 15.40683702 29264
Source of the keplerian elements: AFSPC